Location: Newark
(45.5000°N, 11.4167°E)
Time: 08:17:23
(UTC+00:00)

A-11 Canister half - All Passes

Search period start: 19 August 2019 00:00
Search period end: 29 August 2019 00:00
Orbit: 1514 x 1686 km, 47.2° (Epoch: 18 August)

Date Brightness Start Highest point End Pass type
(mag) Time Alt. Az. Time Alt. Az. Time Alt. Az.
19 Aug - 01:52:27 10° W 02:00:00 25° SW 02:07:38 10° S visible
19 Aug - 15:13:18 10° SE 15:15:46 11° ESE 15:18:15 10° ESE daylight
19 Aug - 17:09:55 10° SSW 17:18:34 44° SE 17:27:33 10° ENE daylight
19 Aug - 19:13:21 10° WSW 19:22:55 87° SSE 19:32:54 10° ENE visible
19 Aug - 21:18:31 10° W 21:28:17 82° N 21:38:24 10° E visible
19 Aug - 23:23:36 10° WNW 23:33:22 67° SSW 23:43:22 10° SE visible
20 Aug - 01:29:23 10° W 01:37:10 27° SW 01:45:02 10° S visible
20 Aug - 16:47:10 10° SSW 16:55:43 41° SE 17:04:33 10° ENE daylight
20 Aug - 18:50:27 10° WSW 18:59:59 85° SSE 19:09:55 10° ENE visible
20 Aug - 20:55:35 10° W 21:05:19 82° N 21:15:25 10° E visible
20 Aug - 23:00:40 10° WNW 23:10:26 69° SSW 23:20:28 10° SE visible
21 Aug - 01:06:19 10° WNW 01:14:18 28° SW 01:22:24 10° S visible
21 Aug - 16:24:29 10° SSW 16:32:53 39° SE 16:41:32 10° ENE daylight
21 Aug - 18:27:34 10° WSW 18:37:03 83° SSE 18:46:56 10° ENE visible
21 Aug - 20:32:38 10° W 20:42:20 81° N 20:52:25 10° E visible
21 Aug - 22:37:44 10° WNW 22:47:30 72° SSW 22:57:33 10° SE visible
22 Aug - 00:43:16 10° WNW 00:51:27 30° SW 00:59:46 10° S visible
22 Aug - 16:01:47 10° SSW 16:10:02 37° SE 16:18:32 10° ENE daylight
22 Aug - 18:04:40 10° WSW 18:14:07 81° SSE 18:23:57 10° ENE daylight
22 Aug - 20:09:42 10° W 20:19:22 81° N 20:29:25 10° E visible
22 Aug - 22:14:49 10° WNW 22:24:34 74° SSW 22:34:37 10° ESE visible
23 Aug - 00:20:15 10° WNW 00:28:35 32° SW 00:37:05 10° SSE visible
23 Aug - 15:39:07 10° SSW 15:47:12 35° SE 15:55:30 10° ENE daylight
23 Aug - 17:41:48 10° WSW 17:51:12 79° SSE 18:01:00 10° ENE daylight
23 Aug - 19:46:46 10° W 19:56:25 81° N 20:06:25 10° E visible
23 Aug - 21:51:53 10° WNW 22:01:38 76° SSW 22:11:41 10° ESE visible
23 Aug - 23:57:14 10° WNW 00:05:44 34° SW 00:14:24 10° SSE visible
24 Aug - 15:16:28 10° SSW 15:24:22 33° SE 15:32:29 10° ENE daylight
24 Aug - 17:18:55 10° WSW 17:28:17 76° SSE 17:38:01 10° ENE daylight
24 Aug - 19:23:50 10° W 19:33:27 81° N 19:43:26 10° E visible
24 Aug - 21:28:58 10° WNW 21:38:41 79° SSW 21:48:44 10° ESE visible
24 Aug - 23:34:15 10° WNW 23:42:52 36° SW 23:51:41 10° SSE visible
25 Aug - 14:53:50 10° S 15:01:33 31° SE 15:09:27 10° ENE daylight
25 Aug - 16:56:04 10° WSW 17:05:23 74° SSE 17:15:04 10° ENE daylight
25 Aug - 19:00:55 10° W 19:10:29 81° N 19:20:26 10° E visible
25 Aug - 21:06:03 10° WNW 21:15:45 81° SSW 21:25:48 10° ESE visible
25 Aug - 23:11:16 10° WNW 23:20:00 38° SW 23:28:57 10° SSE visible
26 Aug - 14:31:14 10° S 14:38:44 29° SE 14:46:23 10° ENE daylight
26 Aug - 16:33:12 10° SW 16:42:28 72° SSE 16:52:05 10° ENE daylight
26 Aug - 18:37:59 10° W 18:47:31 81° N 18:57:26 10° E visible
26 Aug - 20:43:08 10° WNW 20:52:49 83° SSW 21:02:51 10° ESE visible
26 Aug - 22:48:17 10° WNW 22:57:07 40° SW 23:06:12 10° SSE visible
27 Aug - 14:08:38 10° S 14:15:55 27° SE 14:23:20 10° E daylight
27 Aug - 16:10:21 10° SW 16:19:34 69° SSE 16:29:07 10° ENE daylight
27 Aug - 18:15:04 10° W 18:24:33 82° N 18:34:27 10° E visible
27 Aug - 20:20:13 10° WNW 20:29:52 85° SSW 20:39:53 10° ESE visible
27 Aug - 22:25:19 10° WNW 22:34:15 42° SW 22:43:25 10° SSE visible
28 Aug - 00:35:01 10° WSW 00:37:13 11° WSW 00:39:24 10° SW visible
28 Aug - 13:46:05 10° S 13:53:06 25° SE 14:00:15 10° E daylight
28 Aug - 15:47:30 10° SW 15:56:41 67° SSE 16:06:10 10° ENE daylight
28 Aug - 17:52:08 10° W 18:01:36 82° N 18:11:27 10° E daylight
28 Aug - 19:57:17 10° WNW 20:06:55 86° SSW 20:16:55 10° ESE visible
28 Aug - 22:02:22 10° WNW 22:11:22 44° SW 22:20:38 10° SSE visible
